This is the latest recevied weather packets stored in our database for station/object WA9SDJ-13. If no packets are shown the sender has not sent any weather packets the latest 1 day(s).
| Time | Temp. | Humidity | Pressure | Rain* | Wind** | Luminosity | Snow |
|---|---|---|---|---|---|---|---|
| 1778043003 | 7.78° C | 88% | 1009.7 hPa | 0.76 mm | 1.34 m/s, 357° | 0 W/m² | - |
| 1778042942 | 7.78° C | 88% | 1009.7 hPa | 0.76 mm | 1.34 m/s, 355° | 0 W/m² | - |
| 1778042883 | 7.78° C | 88% | 1009.7 hPa | 0.76 mm | 1.79 m/s, 354° | 0 W/m² | - |
| 1778042822 | 7.78° C | 88% | 1009.8 hPa | 0.76 mm | 1.79 m/s, 17° | 0 W/m² | - |
| 1778042762 | 7.78° C | 88% | 1009.9 hPa | 0.76 mm | 1.79 m/s, 18° | 0 W/m² | - |
| 1778042702 | 7.78° C | 88% | 1009.9 hPa | 1.02 mm | 1.79 m/s, 14° | 0 W/m² | - |
| 1778042642 | 7.78° C | 88% | 1010 hPa | 1.02 mm | 1.34 m/s, 358° | 0 W/m² | - |
| 1778042582 | 7.78° C | 88% | 1009.9 hPa | 1.02 mm | 0.89 m/s, 353° | 0 W/m² | - |
| 1778042522 | 7.78° C | 88% | 1010 hPa | 1.02 mm | 0.89 m/s, 327° | 0 W/m² | - |
| 1778042462 | 7.78° C | 88% | 1010 hPa | 1.02 mm | 0.89 m/s, 320° | 0 W/m² | - |
| 1778042403 | 7.78° C | 88% | 1010 hPa | 1.02 mm | 1.34 m/s, 320° | 0 W/m² | - |
| 1778042342 | 7.78° C | 88% | 1010 hPa | 1.02 mm | 1.34 m/s, 319° | 0 W/m² | - |
| 1778042282 | 7.78° C | 88% | 1010.1 hPa | 1.02 mm | 1.34 m/s, 355° | 0 W/m² | - |
| 1778042222 | 7.78° C | 88% | 1010.1 hPa | 1.02 mm | 1.34 m/s, 0° | 0 W/m² | - |
| 1778042162 | 7.78° C | 88% | 1010.1 hPa | 1.02 mm | 1.34 m/s, 0° | 0 W/m² | - |
| 1778042103 | 7.78° C | 88% | 1010.1 hPa | 1.02 mm | 1.34 m/s, 324° | 0 W/m² | - |
| 1778042042 | 7.78° C | 88% | 1010.1 hPa | 1.02 mm | 1.34 m/s, 333° | 0 W/m² | - |
| 1778041982 | 7.78° C | 88% | 1010.1 hPa | 1.02 mm | 1.79 m/s, 329° | 0 W/m² | - |
| 1778041922 | 7.78° C | 88% | 1010.1 hPa | 1.02 mm | 1.79 m/s, 306° | 0 W/m² | - |
| 1778041863 | 7.78° C | 88% | 1010 hPa | 1.02 mm | 1.79 m/s, 329° | 0 W/m² | - |
| 1778041802 | 7.78° C | 88% | 1009.9 hPa | 1.02 mm | 0.89 m/s, 341° | 0 W/m² | - |
| 1778041742 | 7.78° C | 88% | 1010 hPa | 1.02 mm | 0.89 m/s, 10° | 0 W/m² | - |
| 1778041682 | 7.78° C | 88% | 1010 hPa | 1.02 mm | 1.34 m/s, 30° | 0 W/m² | - |
| 1778041623 | 7.78° C | 88% | 1009.9 hPa | 1.02 mm | 1.79 m/s, 14° | 0 W/m² | - |
| 1778041562 | 7.78° C | 88% | 1009.9 hPa | 1.02 mm | 1.79 m/s, 0° | 0 W/m² | - |
* Rain latest hour (hover to see other rain measurements)
** Current wind speed in m/s (hover to see current wind gust speed)